Regional Weather Roundup
Issued by NWS Glasgow, MT

Home | Current Version | Previous Version | Text Only | Print | Product List | Glossary On
Versions: 1 2 3 4 5 6 7 8 9 10 11 12 13 14 15 16 17 18 19 20 21 22 23 24 25 26 27
000
ASUS45 KGGW 242115
RWRGGW
HOURLY REGIONAL WEATHER ROUNDUP FOR NORTHEAST MONTANA
NATIONAL WEATHER SERVICE GLASGOW MONTANA
200 PM MST FRI FEB 24 2017

NOTE: "FAIR" INDICATES FEW OR NO CLOUDS BELOW 12,000 FEET WITH NO
SIGNIFICANT WEATHER AND/OR OBSTRUCTIONS TO VISISBILITY.

NORTHEAST MONTANA


CITY           SKY/WX    TMP DP  RH WIND       PRES   REMARKS
GLASGOW        CLOUDY    30  24  78 S8        30.06F
PLENTYWOOD       N/A     29  21  72 SW9         N/A
WOLF POINT     CLOUDY    31  22  69 SW9       30.09F
JORDAN           N/A     34  21  59 S7        30.03F
SIDNEY         CLOUDY    28  15  58 SW9       30.11F
GLENDIVE       CLOUDY    29  16  58 S7        30.08F
MALTA            N/A     33  32  96 S3          N/A
SCOBEY           N/A     29  18  63 S9        30.03S

FORT PECK REPORTS


CITY           SKY/WX    TMP DP  RH WIND       PRES   REMARKS
FORT PECK        N/A     31  26  82 SE12        N/A
THE PINES        N/A     32  24  72 CALM        N/A

SOUTHEAST MONTANA


CITY           SKY/WX    TMP DP  RH WIND       PRES   REMARKS
BILLINGS       FLURRIES  28  24  85 N5        29.99S
MILES CITY     CLOUDY    32  19  58 CALM      30.04F
BAKER          CLOUDY    29  14  53 VRB5      30.05F
LIVINGSTON     CLOUDY    26  15  63 SW3       29.95S

CENTRAL MONTANA


CITY           SKY/WX    TMP DP  RH WIND       PRES   REMARKS
HAVRE          CLOUDY    28  25  88 CALM      30.06S
LEWISTOWN      FLURRIES  27  18  69 NW7       29.98R
GREAT FALLS    FLURRIES  29  18  63 N13       30.01S
CUT BANK       SUNNY     28  16  60 NW14      30.01S
HELENA         CLOUDY    33  15  47 W6        29.99S
BUTTE          CLOUDY    24  15  68 CALM      29.94S
BOZEMAN        CLOUDY    29  18  63 N5        29.98S

WESTERN MONTANA


CITY           SKY/WX    TMP DP  RH WIND       PRES   REMARKS
MISSOULA       PTSUNNY   33  15  47 N9        30.09S
KALISPELL      NOT AVBL

NORTH DAKOTA


CITY           SKY/WX    TMP DP  RH WIND       PRES   REMARKS
WILLISTON      CLOUDY    27  17  66 SW10      30.11F
DICKINSON      CLOUDY    23  12  62 SW5       30.07F
MINOT          MOSUNNY   30  16  56 N6        30.10F
BISMARCK       MOSUNNY   31  17  56 NW13      30.13S

SOUTHERN SASKATCHEWAN


CITY           SKY/WX    TMP DP  RH WIND       PRES   REMARKS
REGINA         FLURRIES  30  18  59 SW10      30.05F
ESTEVAN        MOSUNNY   28  16  59 SW9       30.09F
SWIFT CURRENT  PTSUNNY   25  19  80 NW10      30.03S





USA.gov is the U.S. government's official web portal to all federal, state and local government web resources and services.